Regional Weather Roundup
Issued by NWS Midland/Odessa, TX

Skip options and go directly to product.
Home | Oldest Version | Previous Version | Current Version | All | Text Only | Save Text | Print | Product List | Glossary On

Skip product version selection by date and time.   
810
ASUS44 KMAF 221110
RWRMAF
MIDLAND AREA WEATHER ROUNDUP
NATIONAL WEATHER SERVICE MIDLAND TX
600 AM CDT FRI MAY 22 2015

...IN SOUTHWEST TEXAS AND SOUTHEAST NEW MEXICO...

CITY           SKY/WX    TMP DP  RH WIND       PRES   REMARKS
ALPINE         CLOUDY    56  56  98 NE3       30.16S
ANDREWS        DRIZZLE   55  55 100 E3        30.10R
ARTESIA        MOCLDY    54  54 100 CALM      30.11S
BIG SPRING     CLOUDY    59  57  93 CALM      30.11R
CARLSBAD       CLOUDY    55  52  89 CALM      30.09S
DRYDEN           N/A     66  65  96 SE8       30.02R
FORT STOCKTON  FOG       58  58 100 N6        30.07R VSB 1/2
GUAD PASS      CLOUDY    48  48 100 NE13      30.13S
HOBBS          CLOUDY    52  52 100 NE5       30.11F FOG
MARFA          CLOUDY    57  57 100 CALM      30.13R
MIDLAND AIRPK  DRIZZLE   59  59 100 E5        30.09R
MIDLAND INTL   CLOUDY    58  57  97 E5        30.07S FOG
ODESSA         LGT RAIN  58  56  93 E6        30.08S FOG
PECOS          CLOUDY    56  55  96 NW7       30.07S FOG
PRESIDIO       FAIR      65  58  79 MISG      30.02R
SEMINOLE       DRIZZLE   55  54  98 CALM      30.12R
SNYDER         CLOUDY    56  56  98 E10       30.09R FOG
WINK           CLOUDY    58  55  90 N6        30.06S FOG
$$
...OTHER STATIONS IN TEXAS...

CITY           SKY/WX    TMP DP  RH WIND       PRES   REMARKS
ABILENE        CLOUDY    59  57  93 SE9       30.11R FOG
AMARILLO       CLOUDY    50  49  96 SE7       30.13R
AUSTIN         DRZL/FOG  63  63 100 NE6       30.08F VSB 1/4
BROWNSVILLE    CLOUDY    76  75  97 CALM      30.03S FOG
CORPUS CHRISTI CLOUDY    75  73  93 CALM      30.01S
DALLAS FTW     CLOUDY    60  58  92 E9        30.13S
DEL RIO        LGT RAIN  68  66  93 E10       30.02R FOG
EL PASO        MOCLDY    58  51  78 N5        30.04S
HOUSTON INT    CLOUDY    68  65  90 E10       30.11R
LUBBOCK        LGT RAIN  52  51  97 NE9       30.10F
SAN ANGELO     CLOUDY    62  60  93 SE7       30.07F
SAN ANTONIO    DRIZZLE   65  63  93 E9        30.06S FOG
WACO           CLOUDY    61  60  97 E7        30.13R
WICHITA FALLS  NOT AVBL
$$
...OTHER LOCATIONS IN NEW MEXICO...

CITY           SKY/WX    TMP DP  RH WIND       PRES   REMARKS
ALAMAGORDO     CLEAR     48  46  93 SE3       30.07R
ALBUQUERQUE    CLOUDY    49  44  83 N6        30.10R
CANNON AFB     CLOUDY    49  49  99 SW2       30.12S
CLOVIS         CLOUDY    48  46  93 S3        30.13S
HOLLOMAN AFB   CLEAR     51  51  99 CALM      30.05R
ROSWELL        CLOUDY    53  51  93 CALM      30.09F
RUIDOSO        FOG       39  39 100 SW3       30.17R VSB<1/4
SANTA FE       MOCLDY    41  38  89 CALM      30.12F
TRUTH OR CONSE CLEAR     48  46  93 N5        30.04R
TUCUMCARI      NOT AVBL
$$

USA.gov is the U.S. government's official web portal to all federal, state and local government web resources and services.